STARLINK-35865

Last updated on Sun Mar 15 2026 00:02:07 GMT+0000 (Coordinated Universal Time)

1 67826U 26033F 26073.58335648 -.01948228 00000+0 -18150-1 0 9994 2 67826 42.9988 241.6505 0001462 277.2877 195.1837 15.69504221 5450
UTC large
Height (km)
Speed (km/s)
/
Latitude / Longitude
Inclination (degrees)
Orbital Period (minutes)
Azimuth
Elevation
Range (km)
Doppler Factor

Next 0 passes for location: London (51.5072 / 0.1276)

Sorry there are no passes over London.